SCP
0 0 0 0 0 0 0 0 0 0 0 0 0 0 0 0 0 0 0 0 0 0 0 0 0 0 0 0 0 0 0 0 0 0 0 0 0 0
0 0 0 0 0 0 0 0 0 0 0 0 0 0 0 0 0 0 0 0 0 0 0 0 0 0 0 0 0 0 0 0 0 0 0 0 0 0
0 0 0 0 0 0 0 0 0 0 0 0 0 0 0 0 0 0 0 0 0 0 0 0 0 0 0 0 0 0 0 0 0 0 0 0 0 0
0 0 0 0 0 0 0 0 0 0 0 0 0 0 0 0 0 0 0 0 0 0 0 0 0 0 0 0 0 0 0 0 0 0 0 0 0 0
0 0 0 0 0 0 0 0 0 0 0 0 0 0 0 0 0 0 0 0 0 0 0 0 0 0 0 0 0 0 0 0 0 0 0 0 0 0
0 0 0 0 0 0 0 0 0 0 0 0 0 0 0 0 0 0 0 0 0 0 0 0 0 0 0 -0 0 0 0 0 0 0 0 0 0 0
0 0 0 0 0 0 0 0 0 0 0 0 0 0 0 0 0 0 0 0 0 0 0 0 0 0 0 -0 0 0 0 0 0 0 0 0 0 0
0 0 0 0 0 0 0 0 0 0 0 0 0 0 0 0 0 0 0 0 0 0 0 0 0 -0 0 0 0 0 0 0 0 0 0 0 0 0
0 0 0 0 0 0 0 0 0 0 0 0 0 0 0 0 0 0 -0 0 0 0 0 0 0 0 0 0 -0 0 0 0 0 0 0 0 0 0
0 0 0 0 0 0 0 0 0 0 0 0 0 0 0 0 0 0 0 0 0 0 0 -0 0 -0 -0 0 0 0 0 0 0 0 0 0 0 0
0 0 0 0 0 0 0 0 0 0 0 0 0 0 0 0 0 0 0 -0 -0 -0 -0 -0 0 -0 -0 -0 0 -0 0 0 0 0 0 0 0 0
0 0 0 0 0 0 0 0 0 0 0 0 0 0 0 0 0 0 0 -0 -0 -0 -0 -0 0 -0 -0 -0 0 -0 -0 -0 0 0 0 0 0 0
0 0 0 0 0 0 0 0 0 0 0 0 0 0 0 0 0 0 0 0 0 0 -0 -0 -0 -0 -0 0 0 0 0 0 0 0 0 0 0 0
0 0 0 0 0 0 0 0 0 0 0 0 0 0 0 0 0 0 0 0 -0 -0 -0 -0 -0 -0 -0 0 0 0 0 0 0 0 0 0 0 0
0 0 0 0 0 0 0 0 0 0 0 0 0 0 0 0 0 0 0 -0 -0 -0 -0 -0 0 0 0 0 0 0 0 0 0 0 0 0 0 0
0 0 0 0 0 0 0 0 0 0 0 0 0 0 0 0 0 0 0 -0 -0 -0 0 0 0 0 0 0 0 0 0 0 0 0 0 0 0 0
0 0 0 0 0 0 0 0 0 0 0 0 0 0 0 0 -0 0 0 -0 -0 -0 0 0 0 0 0 0 0 0 0 0 0 0 0 0 0 0
0 0 0 0 0 0 0 0 0 0 0 0 0 0 0 0 -0 0 0 -0 -0 0 0 0 0 0 0 0 0 0 0 0 0 0 0 0 0 0
0 0 0 0 0 0 0 0 0 0 0 0 0 0 0 0 -0 0 0 0 0 0 0 0 0 0 0 0 0 0 0 0 0 0 0 0 0 0
0 0 0 0 0 0 0 0 0 0 0 0 0 0 0 0 0 0 0 0 0 0 0 0 0 0 0 0 0 0 0 0 0 0 0 0 0 0
0 0 0 0 0 0 0 0 0 0 0 0 0 0 0 0 0 0 0 -0 0 0 0 0 0 0 0 0 0 0 0 0 0 0 0 0 0 0
0 0 0 0 0 0 0 0 0 0 0 0 0 0 0 0 0 0 0 0 -0 0 0 0 0 0 0 0 0 0 0 0 0 -0 0 0 0 0
0 0 0 0 0 0 0 0 0 0 0 0 0 0 0 0 0 0 0 0 0 0 0 0 0 0 0 0 0 0 0 0 0 0 0 0 0 0
Wind_Speed_500mb
29 29 30 29 27 31 33 35 39 43 55 62 65 66 49 56 54 60 61 68 72 62 56 55 59 68 76 73 69 59 51 51 52 49 45 45 40 36
25 22 22 25 30 32 41 41 46 51 45 69 70 70 70 65 59 60 63 63 62 63 63 62 61 64 71 69 69 68 56 51 53 52 48 46 42 39
28 33 37 42 43 41 40 46 41 51 60 69 70 63 58 55 56 57 59 69 74 58 61 59 58 57 65 67 73 78 72 60 55 54 50 48 45 41
34 40 40 37 38 40 47 45 52 59 56 62 63 59 64 60 61 57 55 57 55 50 51 52 52 50 56 65 65 65 68 70 60 55 52 49 46 42
27 35 40 36 39 46 46 49 59 60 49 54 67 64 69 68 66 60 58 65 57 53 50 46 48 50 47 55 67 75 70 62 60 52 49 48 45 42
18 32 41 36 41 47 47 61 67 63 52 57 66 71 68 70 64 69 69 65 65 54 49 44 46 46 48 55 55 55 61 60 55 51 48 46 44 40
18 28 41 36 42 47 49 64 67 57 52 59 68 75 69 78 71 73 71 69 70 62 50 42 35 38 48 48 49 50 53 52 50 51 48 46 44 41
29 31 40 29 44 45 55 58 65 56 52 53 67 66 65 80 70 67 65 64 67 60 56 56 46 54 47 43 40 51 57 50 48 48 47 48 43 41
34 37 30 31 35 46 53 63 69 54 42 58 64 62 70 69 74 79 70 63 65 58 54 59 46 43 44 40 41 48 45 42 41 43 46 45 44 43
39 31 24 35 41 42 56 60 54 47 50 59 52 59 60 63 74 77 71 60 57 53 43 56 48 43 41 30 33 49 44 34 31 35 37 39 40 40
44 32 32 32 37 46 59 55 48 48 54 60 61 67 60 61 73 78 54 49 58 57 39 43 42 41 42 21 35 52 45 33 32 27 30 32 32 32
52 37 32 31 39 50 51 51 51 52 54 61 72 81 59 56 73 68 50 43 42 46 39 46 42 41 24 8 47 43 39 36 38 28 27 27 29 33
57 49 35 34 38 37 41 46 50 53 47 57 76 81 63 67 78 64 46 32 39 41 39 50 31 26 19 15 30 30 36 37 34 25 25 26 26 24
53 44 33 24 36 37 34 37 38 43 47 59 70 77 68 67 77 65 46 37 28 39 43 32 25 24 20 10 10 33 31 28 24 21 24 21 21 23
39 32 27 27 29 32 33 35 36 58 46 58 69 76 62 60 72 64 47 32 18 20 27 12 18 11 21 16 3 19 31 32 24 22 24 22 21 26
30 24 21 24 21 35 51 58 58 58 46 53 64 61 58 61 61 66 50 41 31 22 17 16 8 7 16 18 9 14 25 28 27 30 29 27 30 29
31 28 27 27 28 46 61 65 59 44 48 52 66 56 59 62 63 61 57 44 39 42 36 10 16 16 12 9 13 19 24 28 22 27 29 30 32 31
34 35 29 27 34 55 55 66 41 44 55 64 60 51 57 63 62 54 54 56 50 40 30 15 7 13 17 20 20 17 18 22 27 33 25 26 33 25
38 29 33 29 43 46 48 53 43 43 53 71 44 56 56 54 56 54 57 52 60 46 24 15 16 17 12 10 10 21 20 13 13 23 20 17 22 16
46 43 37 33 44 46 45 42 43 41 54 67 43 54 62 56 48 56 56 51 57 60 29 12 11 17 18 15 15 16 22 16 10 16 17 19 18 16
47 51 41 45 44 44 40 41 37 43 62 54 42 51 61 55 41 49 52 43 46 58 41 17 14 16 17 25 14 18 20 26 14 11 14 15 19 19
64 62 42 46 30 29 33 30 38 49 65 40 44 53 51 45 37 44 48 44 38 50 49 22 14 25 27 27 20 17 18 17 20 18 17 16 20 21
63 55 53 40 25 31 30 39 43 52 51 42 49 47 43 41 31 36 44 40 38 55 55 26 8 25 25 23 23 24 18 18 9 11 4 6 13 19
Wind_Direction_500mb
329 328 332 331 333 331 328 326 323 321 314 316 318 315 311 309 307 294 294 300 298 289 283 280 281 266 261 264 260 255 258 256 255 254 256 257 260 264
325 320 321 315 316 311 306 308 307 316 319 309 310 309 309 305 296 292 296 295 297 295 287 285 281 275 263 264 253 255 252 255 254 252 254 256 257 262
306 305 307 310 308 306 314 320 323 320 314 312 315 319 320 317 307 301 294 295 297 292 288 283 281 276 267 262 255 253 254 252 250 250 252 252 255 258
301 305 311 312 312 318 327 333 334 334 328 328 327 329 328 323 320 312 307 303 302 297 297 287 279 278 267 264 255 254 254 244 244 245 249 249 250 254
304 311 315 316 316 324 337 340 339 338 337 334 331 330 328 330 326 324 318 317 307 306 303 284 282 281 279 275 259 260 252 232 236 237 245 245 247 249
307 311 320 316 322 325 326 335 339 339 335 335 334 333 331 331 331 330 323 319 319 312 305 298 290 283 289 278 261 265 231 222 228 232 238 242 243 244
305 315 324 319 319 319 317 330 335 337 333 330 332 332 334 338 331 327 321 319 315 322 323 320 294 283 300 285 258 259 215 218 225 230 235 238 240 242
315 316 320 313 310 306 312 324 332 331 326 328 332 328 327 336 332 328 322 321 313 318 317 311 300 288 290 286 269 244 212 222 231 233 233 235 238 242
312 314 310 305 305 302 312 322 327 324 328 329 326 328 327 327 330 326 317 310 310 309 319 314 312 303 304 272 272 215 194 224 232 235 234 233 237 238
331 317 297 309 302 305 328 335 338 336 336 340 330 326 324 318 326 326 314 302 304 308 317 309 313 314 314 272 236 188 201 218 214 213 221 226 233 239
335 318 295 317 307 318 328 331 342 342 337 337 332 331 316 313 326 333 319 313 302 299 321 312 313 311 315 270 217 208 218 219 209 208 208 216 224 234
333 331 307 301 309 315 316 319 326 336 326 323 333 333 331 331 335 336 329 311 306 309 311 301 302 308 308 264 190 211 221 218 212 215 220 220 228 237
328 328 327 316 316 318 316 323 319 324 320 318 329 331 336 343 342 342 335 311 301 287 299 303 285 308 268 174 206 207 191 190 199 212 209 216 230 236
320 328 331 331 330 331 333 330 324 321 328 325 325 333 340 341 350 349 344 323 281 275 299 296 299 290 246 247 187 189 189 198 214 221 206 214 222 228
316 328 331 327 327 329 326 322 312 326 331 325 329 331 333 345 355 354 353 341 311 312 327 302 291 293 204 238 154 200 203 202 197 194 209 228 241 243
316 326 326 325 322 314 322 326 325 326 324 324 330 329 338 351 351 360 358 357 344 325 359 347 327 217 215 241 225 194 208 203 219 223 230 234 236 256
322 334 329 318 303 313 325 334 335 340 343 340 339 338 339 346 353 355 1 3 353 336 331 310 289 286 273 277 185 194 198 211 225 223 229 240 257 265
314 312 310 303 301 318 325 333 338 344 348 345 337 343 338 339 350 349 356 2 1 348 332 323 293 268 243 242 238 217 219 229 237 224 241 254 249 253
312 303 297 283 302 316 325 333 330 332 338 339 340 354 346 341 349 347 350 353 1 357 333 320 253 239 236 242 238 216 223 235 208 218 244 237 231 222
286 288 292 282 299 308 323 319 314 315 329 337 338 346 345 341 344 347 348 349 352 355 343 310 266 246 234 220 231 223 212 199 197 193 202 208 212 232
303 285 276 282 299 308 309 305 303 317 335 331 336 336 339 338 343 349 345 342 346 351 358 309 253 234 211 220 231 209 200 207 215 230 225 234 239 254
298 297 256 264 297 301 305 295 309 323 332 330 337 335 337 338 340 348 352 346 343 344 353 354 210 199 206 208 196 214 193 193 213 238 255 247 238 245
303 272 258 266 263 291 291 299 311 324 333 335 336 337 339 337 337 347 354 344 347 345 349 30 175 206 211 201 200 195 182 156 146 162 166 274 265 257
Wind_Speed_850mb
29 29 30 29 27 31 33 35 39 43 55 62 65 66 49 56 54 60 61 68 72 62 56 55 59 68 76 73 69 59 51 51 52 49 45 45 40 36
25 22 22 25 30 32 41 41 46 51 45 69 70 70 70 65 59 60 63 63 62 63 63 62 61 64 71 69 69 68 56 51 53 52 48 46 42 39
28 33 37 42 43 41 40 46 41 51 60 69 70 63 58 55 56 57 59 69 74 58 61 59 58 57 65 67 73 78 72 60 55 54 50 48 45 41
34 40 40 37 38 40 47 45 52 59 56 62 63 59 64 60 61 57 55 57 55 50 51 52 52 50 56 65 65 65 68 70 60 55 52 49 46 42
27 35 40 36 39 46 46 49 59 60 49 54 67 64 69 68 66 60 58 65 57 53 50 46 48 50 47 55 67 75 70 62 60 52 49 48 45 42
18 32 41 36 41 47 47 61 67 63 52 57 66 71 68 70 64 69 69 65 65 54 49 44 46 46 48 55 55 55 61 60 55 51 48 46 44 40
18 28 41 36 42 47 49 64 67 57 52 59 68 75 69 78 71 73 71 69 70 62 50 42 35 38 48 48 49 50 53 52 50 51 48 46 44 41
29 31 40 29 44 45 55 58 65 56 52 53 67 66 65 80 70 67 65 64 67 60 56 56 46 54 47 43 40 51 57 50 48 48 47 48 43 41
34 37 30 31 35 46 53 63 69 54 42 58 64 62 70 69 74 79 70 63 65 58 54 59 46 43 44 40 41 48 45 42 41 43 46 45 44 43
39 31 24 35 41 42 56 60 54 47 50 59 52 59 60 63 74 77 71 60 57 53 43 56 48 43 41 30 33 49 44 34 31 35 37 39 40 40
44 32 32 32 37 46 59 55 48 48 54 60 61 67 60 61 73 78 54 49 58 57 39 43 42 41 42 21 35 52 45 33 32 27 30 32 32 32
52 37 32 31 39 50 51 51 51 52 54 61 72 81 59 56 73 68 50 43 42 46 39 46 42 41 24 8 47 43 39 36 38 28 27 27 29 33
57 49 35 34 38 37 41 46 50 53 47 57 76 81 63 67 78 64 46 32 39 41 39 50 31 26 19 15 30 30 36 37 34 25 25 26 26 24
53 44 33 24 36 37 34 37 38 43 47 59 70 77 68 67 77 65 46 37 28 39 43 32 25 24 20 10 10 33 31 28 24 21 24 21 21 23
39 32 27 27 29 32 33 35 36 58 46 58 69 76 62 60 72 64 47 32 18 20 27 12 18 11 21 16 3 19 31 32 24 22 24 22 21 26
30 24 21 24 21 35 51 58 58 58 46 53 64 61 58 61 61 66 50 41 31 22 17 16 8 7 16 18 9 14 25 28 27 30 29 27 30 29
31 28 27 27 28 46 61 65 59 44 48 52 66 56 59 62 63 61 57 44 39 42 36 10 16 16 12 9 13 19 24 28 22 27 29 30 32 31
34 35 29 27 34 55 55 66 41 44 55 64 60 51 57 63 62 54 54 56 50 40 30 15 7 13 17 20 20 17 18 22 27 33 25 26 33 25
38 29 33 29 43 46 48 53 43 43 53 71 44 56 56 54 56 54 57 52 60 46 24 15 16 17 12 10 10 21 20 13 13 23 20 17 22 16
46 43 37 33 44 46 45 42 43 41 54 67 43 54 62 56 48 56 56 51 57 60 29 12 11 17 18 15 15 16 22 16 10 16 17 19 18 16
47 51 41 45 44 44 40 41 37 43 62 54 42 51 61 55 41 49 52 43 46 58 41 17 14 16 17 25 14 18 20 26 14 11 14 15 19 19
64 62 42 46 30 29 33 30 38 49 65 40 44 53 51 45 37 44 48 44 38 50 49 22 14 25 27 27 20 17 18 17 20 18 17 16 20 21
63 55 53 40 25 31 30 39 43 52 51 42 49 47 43 41 31 36 44 40 38 55 55 26 8 25 25 23 23 24 18 18 9 11 4 6 13 19
Wind_Direction_850mb
329 328 332 331 333 331 328 326 323 321 314 316 318 315 311 309 307 294 294 300 298 289 283 280 281 266 261 264 260 255 258 256 255 254 256 257 260 264
325 320 321 315 316 311 306 308 307 316 319 309 310 309 309 305 296 292 296 295 297 295 287 285 281 275 263 264 253 255 252 255 254 252 254 256 257 262
306 305 307 310 308 306 314 320 323 320 314 312 315 319 320 317 307 301 294 295 297 292 288 283 281 276 267 262 255 253 254 252 250 250 252 252 255 258
301 305 311 312 312 318 327 333 334 334 328 328 327 329 328 323 320 312 307 303 302 297 297 287 279 278 267 264 255 254 254 244 244 245 249 249 250 254
304 311 315 316 316 324 337 340 339 338 337 334 331 330 328 330 326 324 318 317 307 306 303 284 282 281 279 275 259 260 252 232 236 237 245 245 247 249
307 311 320 316 322 325 326 335 339 339 335 335 334 333 331 331 331 330 323 319 319 312 305 298 290 283 289 278 261 265 231 222 228 232 238 242 243 244
305 315 324 319 319 319 317 330 335 337 333 330 332 332 334 338 331 327 321 319 315 322 323 320 294 283 300 285 258 259 215 218 225 230 235 238 240 242
315 316 320 313 310 306 312 324 332 331 326 328 332 328 327 336 332 328 322 321 313 318 317 311 300 288 290 286 269 244 212 222 231 233 233 235 238 242
312 314 310 305 305 302 312 322 327 324 328 329 326 328 327 327 330 326 317 310 310 309 319 314 312 303 304 272 272 215 194 224 232 235 234 233 237 238
331 317 297 309 302 305 328 335 338 336 336 340 330 326 324 318 326 326 314 302 304 308 317 309 313 314 314 272 236 188 201 218 214 213 221 226 233 239
335 318 295 317 307 318 328 331 342 342 337 337 332 331 316 313 326 333 319 313 302 299 321 312 313 311 315 270 217 208 218 219 209 208 208 216 224 234
333 331 307 301 309 315 316 319 326 336 326 323 333 333 331 331 335 336 329 311 306 309 311 301 302 308 308 264 190 211 221 218 212 215 220 220 228 237
328 328 327 316 316 318 316 323 319 324 320 318 329 331 336 343 342 342 335 311 301 287 299 303 285 308 268 174 206 207 191 190 199 212 209 216 230 236
320 328 331 331 330 331 333 330 324 321 328 325 325 333 340 341 350 349 344 323 281 275 299 296 299 290 246 247 187 189 189 198 214 221 206 214 222 228
316 328 331 327 327 329 326 322 312 326 331 325 329 331 333 345 355 354 353 341 311 312 327 302 291 293 204 238 154 200 203 202 197 194 209 228 241 243
316 326 326 325 322 314 322 326 325 326 324 324 330 329 338 351 351 360 358 357 344 325 359 347 327 217 215 241 225 194 208 203 219 223 230 234 236 256
322 334 329 318 303 313 325 334 335 340 343 340 339 338 339 346 353 355 1 3 353 336 331 310 289 286 273 277 185 194 198 211 225 223 229 240 257 265
314 312 310 303 301 318 325 333 338 344 348 345 337 343 338 339 350 349 356 2 1 348 332 323 293 268 243 242 238 217 219 229 237 224 241 254 249 253
312 303 297 283 302 316 325 333 330 332 338 339 340 354 346 341 349 347 350 353 1 357 333 320 253 239 236 242 238 216 223 235 208 218 244 237 231 222
286 288 292 282 299 308 323 319 314 315 329 337 338 346 345 341 344 347 348 349 352 355 343 310 266 246 234 220 231 223 212 199 197 193 202 208 212 232
303 285 276 282 299 308 309 305 303 317 335 331 336 336 339 338 343 349 345 342 346 351 358 309 253 234 211 220 231 209 200 207 215 230 225 234 239 254
298 297 256 264 297 301 305 295 309 323 332 330 337 335 337 338 340 348 352 346 343 344 353 354 210 199 206 208 196 214 193 193 213 238 255 247 238 245
303 272 258 266 263 291 291 299 311 324 333 335 336 337 339 337 337 347 354 344 347 345 349 30 175 206 211 201 200 195 182 156 146 162 166 274 265 257